Regional Weather Roundup
Issued by NWS

Home | Current Version | Previous Version | Graphics & Text | Print | Product List | Glossary On
Versions: 1 2 3 4 5 6 7 8 9 10 11 12 13 14 15 16 17 18 19 20 21 22 23 24 25 26 27 28 29 30 31 32 33 34 35 36 37 38 39 40 41 42 43 44 45 46 47 48 49 50
000
ASUS45 KBOI 010910
RWRID

IDAHO REGIONAL WEATHER ROUNDUP
NATIONAL WEATHER SERVICE BOISE ID
300 AM MDT SUN MAY 01 2016

NOTE: "FAIR" INDICATES FEW OR NO CLOUDS BELOW 12000 FEET
WITH NO SIGNIFICANT WEATHER AND/OR OBSTRUCTIONS TO VISIBILITY

IDZ012-014-011000-
SOUTHWEST IDAHO


CITY           SKY/WX    TMP DP  RH WIND       PRES   REMARKS
BOISE          CLEAR     44  35  70 S3        30.09F
CALDWELL       CLEAR     44  37  76 CALM      30.10S
MOUNTAIN HOME  PTCLDY    40  36  83 NW6       30.09F
$$

IDZ016-017-011000-
SOUTHCENTRAL IDAHO


CITY           SKY/WX    TMP DP  RH WIND       PRES   REMARKS
BURLEY         CLOUDY    47  39  74 NE6       30.09F
JEROME         MOCLDY    45  42  89 NE3       30.11F
TWIN FALLS     CLOUDY    46  42  86 S5        30.11S
$$

IDZ019>023-011000-
SOUTHEAST IDAHO


CITY           SKY/WX    TMP DP  RH WIND       PRES   REMARKS
IDAHO FALLS    CLOUDY    36  32  85 N7        30.17S WCI  30
POCATELLO      CLOUDY    45  34  65 E7        30.14S
REXBURG        CLOUDY    40  27  59 E7        30.18R
$$

IDZ006-010-011-018-031-032-011000-
CENTRAL IDAHO MOUNTAINS


CITY           SKY/WX    TMP DP  RH WIND       PRES   REMARKS
MCCALL         CLEAR     42  31  64 N7        30.15F
HAILEY         CLOUDY    41  34  75 NW6       30.16S
STANLEY          N/A     29  25  85 CALM      30.20S
SALMON         CLOUDY    43  37  81 N5        30.22F
CHALLIS        CLEAR     39  27  62 NW6       30.20S WCI  35
$$

IDZ002-004-006-007-026-011000-
NORTHERN IDAHO


CITY           SKY/WX    TMP DP  RH WIND       PRES   REMARKS
LEWISTON       CLEAR     48  42  80 CALM      30.22S
LOWELL           N/A     45  42  89 CALM      30.25F
COEUR D`ALENE  CLEAR     43  39  87 E6        30.24S
MULLAN PASS    CLEAR     38  27  64 VRB6      30.28F WCI  33
$$



USA.gov is the U.S. government's official web portal to all federal, state and local government web resources and services.